Вернуться в каталог

STARLINK-31332

АктивенСвязьVLEO
NORAD 59566·PAYLOAD·🇺🇸 United States

Запущен Apr 23, 2024 с Cape Canaveral Space Force Station

Loading…

Ближайшие Пролёты (ближайшие 24 часа)

TLE

СвежийSource: CelesTrak SupGP

Эпоха: Sep 14, 2026, 20:43 UTC

1 59566C 24076C   26257.86368056  .00049614  00000+0  17975-2 0  2575
2 59566  43.0025  20.4232 0001606 278.1781 201.5525 15.27544748    15

Отслеживайте STARLINK-31332 в реальном времени с AllMySat

Download on the App Store